Location: Meanaryar
(48.4161°N, 4.7315°W)
Time: 09:36:40
(UTC+00:00)

Cosmos 1092 Rocket - Pass Details

Date: 20 January 2021
Orbit: 954 x 995 km, 83.0° (Epoch: 02 March)

Event Time Altitude Azimuth Distance (km) Brightness Sun altitude
Rises 18:37:28 0° 165° (SSE) 3,656 7.0 -16.0°
Reaches altitude 10° 18:40:05 10° 159° (SSE) 2,707 6.2 -16.4°
Maximum altitude 18:45:52 43° 89° (E) 1,323 4.2 -17.3°
Drops below altitude 10° 18:51:39 10° 20° (NNE) 2,702 6.0 -18.3°
Sets 18:54:15 0° 15° (NNE) 3,649 6.8 -18.7°
